SCP
4 3 2 3 3 3 3 4 4 4 4 4 4 5 5 5 5 5 6 7 7 7 8 8 8 7 7 7 8 8 9 9 9 9 6 4 3 2 2 2 3 2 2
3 3 2 2 2 3 3 3 4 4 4 4 4 5 5 6 6 7 7 8 8 8 8 8 8 7 7 8 8 8 9 9 10 9 7 5 4 3 3 3 3 2 2
3 2 1 1 2 2 2 3 4 4 4 4 4 4 5 6 6 7 7 8 8 8 9 8 7 7 7 7 7 7 7 8 8 7 6 5 4 4 3 3 2 2 2
1 1 1 1 1 1 1 2 3 4 4 4 3 3 4 4 5 5 6 7 8 8 8 7 7 6 5 5 6 6 6 6 5 5 4 4 3 3 2 2 2 2 2
0 0 0 0 0 1 1 1 2 3 3 3 3 3 3 3 3 4 4 5 6 6 6 5 5 4 4 4 4 5 4 4 3 3 3 3 2 2 1 1 1 1 1
0 0 0 0 0 1 1 1 2 2 3 3 3 3 3 3 3 3 3 4 4 5 4 4 4 3 3 3 3 3 3 2 2 2 1 2 2 1 1 1 1 1 1
0 0 1 1 1 1 1 2 2 3 3 3 4 4 4 4 3 3 3 3 4 4 3 3 3 3 3 2 2 2 2 2 1 1 1 1 1 1 1 1 0 1 1
0 0 1 1 1 1 2 3 4 4 3 3 3 4 4 4 3 3 3 3 3 3 3 2 2 2 2 2 1 1 1 1 1 1 1 1 1 1 1 1 0 0 0
0 0 0 0 1 1 3 4 4 3 3 2 2 3 3 3 3 3 3 3 3 2 2 2 1 1 1 1 1 1 1 1 1 1 1 1 1 1 1 0 0 0 0
0 0 0 0 1 2 3 4 4 3 2 2 1 1 1 1 2 2 2 2 2 1 1 1 1 1 1 1 1 1 1 1 1 1 1 1 1 1 0 0 0 0 0
0 0 0 1 1 2 3 3 3 2 2 1 1 1 1 1 1 1 1 1 1 1 1 1 1 1 0 0 0 0 0 1 1 1 0 0 0 0 0 0 0 0 0
0 0 0 1 1 2 2 2 2 2 2 1 1 1 0 0 0 0 0 0 0 0 1 1 1 0 0 0 0 0 0 0 0 0 0 0 0 0 0 0 0 0 0
1 1 1 1 1 2 2 2 1 1 1 1 1 1 0 0 0 0 0 0 0 0 0 0 0 0 0 0 0 0 0 0 0 0 0 0 0 0 0 0 0 0 0
1 1 1 1 2 2 2 2 1 1 1 1 1 1 0 0 0 0 0 0 0 0 0 0 0 0 0 0 0 0 0 0 0 0 0 0 0 0 0 0 0 0 0
1 1 1 1 1 2 2 2 2 1 1 1 1 1 1 0 0 0 0 0 0 0 0 0 0 0 0 0 0 0 0 0 0 0 0 0 0 0 0 0 0 0 0
1 1 1 1 1 2 3 2 2 2 1 1 1 1 1 0 0 0 0 0 0 0 0 0 0 0 0 0 0 0 0 0 0 0 0 0 0 0 0 0 0 0 0
1 1 1 1 2 3 3 3 2 2 1 1 1 1 1 0 0 0 0 0 0 0 0 0 0 0 0 0 0 0 0 0 0 0 0 0 0 0 0 0 0 0 0
1 1 1 1 2 3 3 3 2 2 2 1 1 1 0 0 0 0 0 0 0 0 0 0 0 0 0 0 0 0 0 0 0 0 0 0 0 0 0 0 0 0 0
1 1 1 1 2 3 3 2 2 2 1 1 1 1 0 0 0 0 0 0 0 0 0 0 0 0 0 0 0 0 0 0 0 0 0 0 0 0 0 0 0 0 0
1 1 1 2 3 3 3 3 2 2 1 1 1 1 1 0 0 0 0 0 0 0 0 0 0 0 0 0 0 0 0 0 0 0 0 0 0 0 0 0 0 0 0
1 1 1 2 3 4 4 3 2 2 1 1 1 1 1 0 0 0 0 0 0 0 0 0 0 0 0 0 0 0 0 0 0 0 0 0 0 0 0 0 0 0 0
1 1 1 2 3 3 4 3 2 2 1 1 1 1 1 0 0 0 0 0 0 0 0 0 0 0 0 0 0 0 0 0 0 0 0 0 0 0 0 0 0 0 0
0 0 1 1 2 2 3 3 3 2 2 1 1 1 1 1 1 0 0 0 0 0 0 0 0 0 0 0 0 0 0 0 0 0 0 0 0 0 0 0 0 0 0
0 0 0 0 1 1 2 2 3 2 2 1 1 1 1 1 1 1 0 0 0 0 0 0 0 0 0 0 0 0 0 0 0 0 0 0 0 0 0 0 0 0 0
0 0 0 0 0 0 1 1 2 2 2 1 1 1 1 1 1 0 0 0 0 0 0 0 0 0 0 0 0 0 0 0 0 0 0 0 0 0 0 0 0 0 0
0 0 0 0 0 0 0 1 2 2 2 1 1 1 1 1 0 0 0 0 0 0 0 0 0 0 0 0 0 0 0 0 0 0 0 0 0 0 0 0 0 0 0
Wind_Speed
4 2 3 4 5 4 3 4 4 3 2 4 6 6 6 5 6 7 8 8 7 6 4 5 5 5 6 6 7 6 7 6 4 3 5 8 9 9 7 7 7 8 9
6 6 6 5 4 5 6 6 6 4 3 3 3 5 7 6 4 4 5 6 7 6 7 6 6 5 5 7 7 7 5 5 5 4 4 5 5 6 8 7 7 7 5
8 9 9 8 7 5 5 5 4 3 4 5 5 6 6 6 7 8 7 8 9 9 8 7 6 6 6 7 7 7 9 6 5 5 5 5 3 2 3 2 1 2 2
3 2 1 2 4 4 5 4 3 4 5 6 8 10 9 9 9 7 7 7 8 8 8 8 7 6 6 6 6 6 4 5 4 3 5 5 2 0 3 3 3 4 4
3 3 3 3 4 4 4 4 5 4 5 6 7 8 10 10 9 9 9 8 7 6 7 7 6 6 5 4 4 2 2 1 2 3 4 3 2 2 2 3 3 3 3
6 5 5 4 3 3 3 4 5 6 6 5 6 7 10 11 12 12 10 7 4 5 7 7 6 6 5 6 5 4 4 3 4 4 3 3 1 1 2 2 2 3 3
5 4 4 3 3 4 4 3 4 5 6 6 6 6 8 11 12 12 10 7 5 5 7 8 7 6 7 7 6 6 6 6 5 3 3 3 2 1 1 2 2 3 3
6 4 3 3 3 4 3 2 3 5 6 7 7 7 8 8 9 9 8 6 3 3 4 6 6 7 7 6 6 5 5 4 4 3 3 2 2 2 2 2 1 2 3
7 8 5 3 4 4 3 3 3 4 5 6 7 7 8 9 9 8 5 3 2 3 3 2 3 4 5 5 4 3 4 4 4 3 3 2 2 1 0 1 1 1 2
10 8 5 6 5 4 2 3 1 0 2 4 6 6 7 8 7 4 1 1 2 2 3 3 2 1 2 2 2 3 3 4 4 3 3 2 1 1 0 0 1 0 1
12 9 6 5 4 2 1 2 3 4 3 4 5 5 5 5 5 5 5 5 4 3 3 3 2 1 1 1 1 2 4 4 4 4 3 3 4 2 3 2 2 1 1
9 7 6 4 4 3 2 4 5 5 5 3 3 3 3 4 5 6 6 6 5 4 3 2 1 1 1 1 1 1 4 4 4 5 5 5 5 5 5 4 3 2 1
9 7 5 4 4 3 3 5 5 5 4 3 2 2 1 1 2 3 3 1 2 3 3 3 2 1 1 2 3 4 5 6 6 6 6 7 7 6 5 4 4 3 2
8 6 4 3 2 3 3 4 5 5 5 4 3 2 2 1 2 4 4 2 2 3 2 1 1 1 3 4 5 5 6 7 8 8 8 8 7 5 5 5 5 5 4
10 7 4 3 2 4 4 5 5 5 4 5 4 4 4 3 2 4 4 3 2 1 1 1 1 2 4 5 5 6 8 7 8 7 7 8 7 7 6 6 5 6 6
12 8 5 4 3 4 5 5 5 5 5 5 5 5 5 4 4 5 5 4 3 2 0 1 3 6 7 11 10 6 6 6 6 6 5 7 8 5 6 7 7 7 6
10 7 5 4 3 4 5 5 5 5 4 4 5 6 6 5 5 6 6 5 4 3 2 4 7 7 7 11 10 8 6 7 8 8 8 8 9 9 7 1 0 4 8
11 8 5 5 5 6 6 6 6 6 5 5 5 7 7 6 5 5 6 5 4 4 3 5 7 5 5 8 11 9 7 6 7 7 8 8 7 10 9 7 7 6 6
12 9 6 7 5 6 6 6 6 6 6 7 6 9 10 9 7 6 6 4 4 4 4 6 6 5 3 5 9 10 4 6 9 9 9 8 6 11 12 8 7 7 7
15 11 8 7 6 6 6 6 7 8 8 8 7 9 11 11 10 8 6 4 4 5 5 6 6 6 4 4 6 6 1 5 7 7 7 10 7 9 10 6 6 6 7
19 17 12 7 6 7 7 8 8 8 9 9 8 8 12 12 11 9 6 5 5 5 5 6 6 6 6 5 6 6 3 0 4 6 6 4 5 7 8 6 4 6 8
20 19 16 12 8 8 9 10 10 8 8 9 9 8 9 12 12 11 9 7 6 6 6 6 5 5 5 5 6 8 6 4 4 6 7 4 4 5 6 5 8 12 10
19 16 16 15 13 11 10 12 10 8 7 8 9 8 9 9 9 12 12 9 7 7 7 7 7 6 5 5 7 9 9 10 7 6 8 7 4 1 2 3 6 6 5
18 16 16 16 14 14 14 13 10 9 9 9 8 8 8 8 9 9 9 9 9 8 8 8 7 7 6 6 5 5 6 9 7 6 6 4 3 3 6 4 2 1 3
17 17 15 14 15 12 16 15 13 11 11 9 8 9 9 9 9 9 8 9 8 8 7 7 7 8 6 6 8 5 3 3 3 5 4 3 4 5 5 3 3 3 3
16 17 18 18 17 13 12 15 12 13 12 10 9 9 9 8 8 8 6 3 3 8 10 8 8 7 9 13 12 10 9 8 7 4 4 5 6 4 2 1 3 4 4
Wind_Direction
125 177 249 249 231 225 231 248 266 289 313 310 307 299 289 279 271 268 270 275 275 266 246 254 248 229 237 241 232 223 222 223 209 229 262 260 248 239 228 223 227 236 245
165 186 206 225 230 215 214 221 235 258 273 278 287 283 283 282 283 277 269 261 259 258 252 247 251 248 248 251 246 239 234 225 204 203 235 255 246 243 237 216 213 224 238
185 193 203 213 227 237 240 254 251 261 274 273 275 274 270 264 260 255 250 245 240 235 232 240 244 248 246 246 241 236 235 233 232 219 227 244 245 348 334 333 226 226 275
162 173 196 341 328 332 333 329 296 247 241 247 255 262 268 271 270 266 258 246 236 233 229 232 235 244 247 247 249 242 239 240 250 269 255 258 290 339 332 333 342 8 347
210 231 254 277 288 298 306 312 299 278 256 247 250 258 264 267 272 272 265 257 245 224 223 222 224 223 227 230 226 227 223 223 249 265 273 268 257 198 224 279 311 323 301
229 226 234 243 252 284 295 305 313 303 288 269 264 266 271 274 275 275 275 270 243 213 210 215 218 218 220 219 212 208 213 210 229 250 267 276 274 224 220 257 284 290 291
270 265 271 280 278 278 278 290 308 331 340 332 316 296 283 279 272 269 266 257 235 215 210 215 224 227 227 221 210 208 212 213 221 242 270 281 270 249 209 229 261 285 292
288 282 279 275 275 281 282 317 3 353 344 334 325 316 306 292 282 273 261 247 230 207 196 213 229 234 230 222 213 215 211 204 208 221 243 258 269 237 216 220 282 317 313
295 290 288 323 344 349 9 46 29 3 347 337 333 327 325 315 299 286 260 216 179 150 146 195 224 231 230 226 218 209 198 189 193 202 208 217 237 231 30 17 34 2 332
312 315 351 354 356 3 42 91 81 131 316 329 333 333 337 337 328 319 310 107 107 114 132 119 119 157 207 200 185 187 190 179 171 166 157 168 159 97 58 12 6 18 304
337 343 346 344 344 341 136 185 218 208 239 290 322 334 347 355 14 33 50 51 46 34 52 70 85 118 210 191 186 174 158 147 140 141 129 100 73 47 18 22 36 24 14
324 317 323 338 336 315 249 237 238 227 236 267 310 329 351 14 38 51 47 38 27 6 352 347 329 273 222 188 199 134 116 115 99 83 77 67 64 51 40 12 15 11 33
326 317 313 310 312 294 254 261 269 256 248 261 269 290 304 57 86 103 93 29 310 298 292 281 282 298 73 87 83 83 82 80 78 74 66 56 49 37 18 9 22 11 12
311 300 287 283 286 267 249 259 274 264 248 248 231 217 198 177 155 158 163 193 258 279 278 269 323 47 84 95 92 85 79 78 75 67 60 52 48 36 4 32 26 12 359
308 295 290 282 258 245 233 241 249 247 250 254 236 203 188 180 155 140 153 166 203 235 357 24 58 86 84 73 73 92 91 93 90 83 77 71 67 62 49 54 33 28 25
302 296 310 305 265 244 241 236 229 233 239 247 239 194 188 176 147 147 152 147 142 122 30 8 56 61 65 43 38 85 96 97 99 104 110 98 56 50 60 66 54 48 43
301 301 304 297 256 245 241 234 223 225 237 241 231 185 182 173 163 162 155 152 152 153 147 84 78 73 53 39 37 64 96 81 70 62 56 60 40 22 360 353 116 72 53
323 306 298 288 253 235 230 218 216 211 216 226 208 173 172 166 163 157 152 164 169 151 127 105 98 93 69 41 35 30 98 90 84 78 79 66 40 20 6 17 23 28 14
308 288 264 266 260 239 235 220 205 204 211 216 196 173 169 166 166 160 160 172 162 146 145 128 123 116 93 45 38 21 97 91 74 64 65 69 50 22 20 22 19 10 352
324 315 277 244 239 231 228 225 213 203 208 210 203 176 170 173 179 176 172 177 168 162 160 148 145 144 140 96 60 25 15 123 117 106 86 70 63 38 24 23 21 3 332
336 337 321 269 237 220 211 219 223 213 203 203 206 186 175 179 185 183 181 180 181 177 170 160 154 154 151 120 79 59 41 112 158 142 118 95 76 52 26 22 21 342 323
336 340 338 326 287 241 215 215 218 215 202 200 204 200 181 185 188 187 189 189 187 177 167 160 155 146 141 125 104 86 61 45 97 107 115 124 102 59 22 16 358 356 358
330 333 331 330 319 286 243 222 213 207 208 204 200 198 188 193 183 183 187 186 187 188 178 171 170 164 141 117 120 106 88 84 89 98 120 135 129 66 301 288 328 354 10
320 321 324 324 327 324 285 244 220 202 206 209 197 187 184 183 178 180 182 184 187 192 186 183 183 162 150 154 157 144 122 115 122 127 127 146 194 258 284 268 242 72 30
311 313 311 311 311 327 319 272 228 207 205 204 195 184 185 180 178 182 184 193 191 191 188 188 175 158 168 168 164 164 160 171 150 144 152 192 214 231 237 200 122 88 47
307 308 309 310 311 312 327 308 257 214 201 200 195 188 184 177 177 173 154 67 172 190 200 181 157 154 151 142 133 123 113 104 121 156 205 216 219 203 179 116 123 108 76